CW2157 Weather Reports


Display with metric or nautical units.
time (UTC)temp
F
wind
direction
speed
MPH
gust
MPH
rain 1hr
in
rain 24hr
in
rain mn
in
humidity
%
barometer
mb
20260903100705 75 99 3.0 8.0 0.00 0.10 0.00 94 1015.0
20260903095205 75 102 4.0 7.0 0.00 0.10 0.00 93 1015.1
20260903094704 75 78 3.0 5.0 0.00 0.10 0.00 93 1015.2
20260903094204 75 70 3.0 5.0 0.00 0.10 0.00 93 1015.2
20260903093704 75 76 3.0 5.0 0.00 0.10 0.00 93 1015.3
20260903093205 75 86 2.0 3.0 0.00 0.10 0.00 93 1015.2
20260903092205 75 65 3.0 5.0 0.00 0.10 0.00 93 1015.1
20260903091705 75 71 4.0 5.0 0.00 0.10 0.00 93 1015.2
20260903091204 75 73 3.0 5.0 0.00 0.10 0.00 93 1015.2
20260903090705 75 73 3.0 3.0 0.00 0.10 0.00 93 1015.1
20260903085705 75 96 4.0 6.0 0.00 0.10 0.00 93 1015.0
20260903084705 75 67 4.0 6.0 0.00 0.10 0.00 93 1015.0
20260903084205 76 63 3.0 6.0 0.00 0.10 0.00 94 1015.0
20260903083704 76 88 3.0 5.0 0.00 0.10 0.00 94 1015.0
20260903083204 76 113 2.0 6.0 0.00 0.10 0.00 94 1015.0
20260903082704 76 117 3.0 6.0 0.00 0.10 0.00 94 1015.1
20260903082204 75 93 2.0 5.0 0.00 0.10 0.00 93 1015.3
20260903081704 75 106 2.0 3.0 0.00 0.10 0.00 93 1015.3
20260903081205 75 93 3.0 5.0 0.00 0.10 0.00 93 1015.3
20260903080705 75 43 3.0 5.0 0.00 0.10 0.00 93 1015.3
20260903075705 76 75 3.0 3.0 0.00 0.10 0.00 94 1015.1
20260903075204 76 122 1.0 3.0 0.00 0.10 0.00 94 1015.1
20260903074704 76 109 1.0 3.0 0.00 0.10 0.00 94 1015.1
20260903074205 75 150 2.0 3.0 0.00 0.10 0.00 94 1015.0
20260903073705 75 118 2.0 3.0 0.00 0.10 0.00 94 1015.0
20260903073205 75 144 1.0 3.0 0.00 0.10 0.00 94 1015.0
20260903072704 75 155 2.0 3.0 0.00 0.10 0.00 94 1014.9
20260903072204 75 140 1.0 3.0 0.00 0.10 0.00 94 1014.8
20260903071705 75 145 2.0 3.0 0.00 0.10 0.00 94 1014.8
20260903070205 75 136 2.0 3.0 0.00 0.10 0.00 94 1014.8
20260903065705 75 137 2.0 7.0 0.00 0.10 0.00 94 1014.8
20260903065205 75 109 3.0 7.0 0.00 0.10 0.00 94 1014.8
20260903064705 75 113 1.0 3.0 0.00 0.10 0.00 94 1014.9
20260903063705 75 166 3.0 7.0 0.00 0.10 0.00 93 1014.7
20260903062705 75 182 3.0 6.0 0.00 0.10 0.00 94 1014.7
20260903062204 75 139 3.0 6.0 0.00 0.10 0.00 94 1014.7
20260903061705 75 181 3.0 6.0 0.00 0.10 0.00 94 1014.7
20260903060704 75 121 2.0 3.0 0.00 0.10 0.00 94 1015.0
20260903060204 75 149 2.0 5.0 0.00 0.10 0.00 94 1015.0
20260903055705 75 112 3.0 6.0 0.00 0.10 0.00 94 1015.0
20260903055204 75 135 2.0 7.0 0.00 0.10 0.00 94 1015.1
20260903054705 75 149 2.0 5.0 0.00 0.10 0.00 94 1015.1
20260903053704 75 90 2.0 6.0 0.00 0.10 0.00 94 1015.2
20260903053204 75 123 4.0 7.0 0.00 0.10 0.00 94 1015.1
20260903052704 75 147 2.0 3.0 0.00 0.10 0.00 94 1015.1
20260903052205 75 102 1.0 3.0 0.00 0.10 0.00 94 1015.2
20260903051704 74 135 2.0 5.0 0.00 0.10 0.00 94 1015.2
20260903051205 75 142 2.0 3.0 0.00 0.10 0.00 94 1015.0
20260903050704 75 88 2.0 3.0 0.00 0.10 0.00 94 1015.1
20260903050204 74 111 2.0 3.0 0.00 0.10 0.00 94 1015.1
20260903045705 74 95 3.0 3.0 0.00 0.10 0.00 94 1015.4
20260903045204 74 97 3.0 3.0 0.00 0.10 0.00 93 1015.4
20260903044704 74 74 2.0 3.0 0.00 0.10 0.00 93 1015.7
20260903044205 74 90 2.0 3.0 0.00 0.10 0.00 93 1015.7
20260903043705 74 48 1.0 2.0 0.00 0.10 0.00 93 1015.7
20260903043204 74 16 2.0 3.0 0.00 0.10 0.00 93 1015.7
20260903042705 74 67 1.0 3.0 0.00 0.10 0.00 93 1015.8
20260903042204 74 90 2.0 3.0 0.00 0.10 0.00 93 1015.5
20260903041704 74 44 1.0 3.0 0.00 0.10 0.00 93 1015.5
20260903040705 74 109 0.0 2.0 0.00 0.10 0.00 94 1015.3
20260903040205 74 113 1.0 3.0 0.00 0.10 0.00 94 1015.2
20260903035204 73 99 2.0 3.0 0.00 0.10 0.10 93 1015.3
20260903034704 73 137 1.0 2.0 0.00 0.10 0.10 93 1015.6
20260903034205 73 91 1.0 2.0 0.00 0.10 0.10 93 1015.5
20260903033204 73 78 2.0 3.0 0.00 0.10 0.10 93 1015.7
20260903032204 73 111 0.0 2.0 0.00 0.10 0.10 92 1015.7
20260903031705 73 111 1.0 2.0 0.00 0.10 0.10 92 1015.6
20260903031204 73 23 1.0 2.0 0.00 0.10 0.10 92 1016.0
20260903030705 73 79 1.0 2.0 0.00 0.10 0.10 92 1015.9
20260903030204 73 79 0.0 2.0 0.00 0.10 0.10 92 1016.0
20260903025704 73 78 2.0 3.0 0.00 0.10 0.10 92 1015.8
20260903025204 73 84 2.0 3.0 0.00 0.10 0.10 92 1015.8
20260903024705 73 48 0.0 2.0 0.00 0.10 0.10 92 1015.8
20260903023204 73 122 2.0 3.0 0.00 0.10 0.10 93 1015.7
20260903022705 73 126 3.0 3.0 0.00 0.10 0.10 92 1015.7
20260903022205 73 108 1.0 3.0 0.00 0.10 0.10 91 1015.8
20260903021704 73 5 1.0 3.0 0.00 0.10 0.10 91 1015.9
20260903021205 73 90 0.0 2.0 0.00 0.10 0.10 91 1015.8
20260903020705 73 102 1.0 3.0 0.00 0.10 0.10 91 1015.9
20260903020206 73 15 1.0 3.0 0.00 0.10 0.10 92 1015.7
20260903015704 73 114 1.0 2.0 0.00 0.10 0.10 92 1015.8
20260903014704 73 119 1.0 2.0 0.00 0.10 0.10 93 1015.5
20260903014204 73 119 1.0 3.0 0.00 0.10 0.10 93 1015.4
20260903013704 73 114 1.0 2.0 0.00 0.10 0.10 92 1015.6
20260903012704 73 85 0.0 0.0 0.00 0.10 0.10 91 1016.0
20260903011705 73 85 0.0 0.0 0.00 0.10 0.10 91 1016.1
20260903010704 73 65 2.0 3.0 0.00 0.10 0.10 91 1016.0
20260903010205 74 69 2.0 3.0 0.00 0.10 0.10 92 1015.9
20260903005704 74 84 2.0 3.0 0.00 0.10 0.10 92 1015.7
20260903005204 74 83 2.0 3.0 0.00 0.10 0.10 92 1015.7
20260903004705 73 97 2.0 3.0 0.00 0.10 0.10 92 1015.7
20260903004204 73 92 2.0 3.0 0.00 0.10 0.10 91 1015.7
20260903003704 73 96 2.0 3.0 0.00 0.10 0.10 91 1015.6
20260903003205 73 72 2.0 5.0 0.00 0.10 0.10 90 1015.7
20260903002704 73 64 3.0 3.0 0.00 0.10 0.10 90 1015.6
20260903002204 73 74 2.0 3.0 0.00 0.10 0.10 90 1015.6
20260903000704 74 85 2.0 3.0 0.00 0.10 0.10 90 1015.6
20260902235704 74 85 2.0 3.0 0.00 0.10 0.10 90 1015.4
20260902235204 74 22 1.0 3.0 0.00 0.10 0.10 90 1015.5
20260902234204 74 66 1.0 2.0 0.00 0.10 0.10 90 1015.5
20260902233704 74 87 2.0 3.0 0.00 0.10 0.10 90 1015.6
20260902233205 75 87 1.0 3.0 0.00 0.10 0.10 90 1015.7
20260902232705 75 87 1.0 2.0 0.00 0.10 0.10 90 1015.7
20260902231704 75 87 1.0 2.0 0.00 0.10 0.10 90 1015.8
20260902231204 75 87 1.0 2.0 0.00 0.10 0.10 90 1015.8
20260902230704 75 60 0.0 2.0 0.00 0.10 0.10 90 1015.8
20260902230204 75 34 0.0 1.0 0.00 0.10 0.10 90 1015.8
20260902225705 75 34 0.0 2.0 0.00 0.10 0.10 90 1015.6
20260902225204 75 25 1.0 2.0 0.00 0.10 0.10 90 1015.6
20260902224704 75 101 1.0 2.0 0.00 0.10 0.10 90 1015.5
20260902224204 75 101 1.0 2.0 0.00 0.10 0.10 90 1015.5
20260902223704 75 101 1.0 2.0 0.00 0.10 0.10 90 1015.4
20260902223205 75 101 2.0 3.0 0.00 0.10 0.10 90 1015.5
20260902222704 75 83 3.0 3.0 0.00 0.10 0.10 90 1015.5
20260902222205 75 80 2.0 3.0 0.00 0.10 0.10 90 1015.6
20260902221704 75 83 2.0 3.0 0.00 0.10 0.10 90 1015.8
20260902221204 75 66 2.0 3.0 0.00 0.10 0.10 90 1016.0
20260902220704 74 38 2.0 3.0 0.00 0.10 0.10 89 1016.1
20260902220204 74 54 2.0 3.0 0.00 0.10 0.10 89 1016.2
20260902215705 75 304 1.0 3.0 0.00 0.10 0.10 89 1016.3
20260902214704 75 339 0.0 1.0 0.00 0.10 0.10 88 1016.1
20260902214204 75 339 0.0 1.0 0.00 0.10 0.10 88 1016.0
20260902213704 75 339 0.0 1.0 0.00 0.10 0.10 88 1016.1
20260902213205 75 339 1.0 2.0 0.00 0.10 0.10 88 1016.1
20260902212704 75 343 1.0 2.0 0.00 0.10 0.10 88 1016.0
20260902212204 75 276 1.0 3.0 0.00 0.10 0.10 88 1015.9
20260902211704 75 258 3.0 6.0 0.00 0.10 0.10 87 1015.9
20260902211206 75 220 4.0 8.0 0.00 0.10 0.10 87 1016.0
20260902210704 75 216 4.0 7.0 0.00 0.10 0.10 88 1015.9
20260902210204 75 190 5.0 7.0 0.00 0.10 0.10 87 1016.1
20260902205704 76 204 5.0 9.0 0.00 0.10 0.10 88 1016.0
20260902205204 75 218 8.0 10.0 0.00 0.10 0.10 87 1016.1
20260902204704 76 197 6.0 9.0 0.00 0.10 0.10 87 1016.0
20260902204205 76 178 5.0 9.0 0.00 0.10 0.10 87 1016.0
20260902203705 76 195 3.0 6.0 0.00 0.10 0.10 87 1016.0
20260902203204 76 192 3.0 6.0 0.00 0.10 0.10 87 1016.1
20260902202705 76 217 5.0 7.0 0.00 0.10 0.10 89 1016.2
20260902202204 76 199 6.0 9.0 0.00 0.10 0.10 89 1016.3
20260902201704 76 201 7.0 9.0 0.00 0.10 0.10 89 1016.4
20260902201204 75 211 5.0 8.0 0.00 0.10 0.10 89 1016.3
20260902200704 75 199 4.0 6.0 0.00 0.10 0.10 89 1016.4
20260902200205 75 221 2.0 3.0 0.01 0.10 0.10 90 1016.5
20260902195704 75 239 0.0 2.0 0.01 0.10 0.10 89 1016.5
20260902194204 75 163 2.0 3.0 0.01 0.10 0.10 88 1015.9
20260902193704 75 141 3.0 8.0 0.01 0.10 0.10 87 1015.9
20260902192204 76 129 1.0 5.0 0.01 0.10 0.10 88 1015.8
20260902191704 76 236 2.0 3.0 0.01 0.10 0.10 87 1016.0
20260902191204 76 108 2.0 5.0 0.02 0.10 0.10 89 1016.3
20260902190704 76 134 2.0 8.0 0.03 0.10 0.10 89 1016.2
20260902190204 76 129 5.0 10.0 0.06 0.09 0.09 89 1016.3
20260902185207 76 102 5.0 8.0 0.09 0.09 0.09 87 1017.5
20260902184704 76 66 4.0 12.0 0.09 0.09 0.09 87 1017.6
20260902184204 76 88 7.0 12.0 0.09 0.09 0.09 87 1017.2
20260902183704 76 84 7.0 12.0 0.09 0.09 0.09 88 1016.9
20260902183204 76 40 3.0 6.0 0.09 0.09 0.09 86 1017.2
20260902182704 76 17 3.0 5.0 0.09 0.09 0.09 86 1017.1
20260902181704 77 293 4.0 7.0 0.09 0.09 0.09 83 1017.7
20260902180704 79 323 5.0 13.0 0.07 0.07 0.07 78 1018.5
20260902180204 81 344 10.0 29.0 0.03 0.03 0.03 71 1019.0
20260902175704 84 341 12.0 22.0 0.00 0.00 0.00 68 1018.8
20260902175205 86 1 6.0 12.0 0.00 0.00 0.00 72 1018.5
20260902174704 87 341 2.0 6.0 0.00 0.00 0.00 72 1017.8
20260902174204 87 308 0.0 2.0 0.00 0.00 0.00 74 1017.5
20260902173704 87 65 3.0 3.0 0.00 0.00 0.00 72 1017.5
20260902173204 87 27 5.0 7.0 0.00 0.00 0.00 73 1017.2
20260902172704 87 71 1.0 3.0 0.00 0.00 0.00 73 1017.2
20260902172204 87 100 2.0 5.0 0.00 0.00 0.00 73 1017.2
20260902170704 87 56 3.0 5.0 0.00 0.00 0.00 72 1016.9
20260902170205 87 59 2.0 5.0 0.00 0.00 0.00 71 1016.9
20260902165704 87 237 2.0 8.0 0.00 0.00 0.00 72 1016.9
20260902165204 87 27 4.0 6.0 0.00 0.00 0.00 71 1016.8
20260902164704 87 152 3.0 6.0 0.00 0.00 0.00 75 1016.7
20260902164204 87 116 4.0 8.0 0.00 0.00 0.00 75 1016.7
20260902163704 86 55 3.0 8.0 0.00 0.00 0.00 72 1016.7
20260902163204 86 105 3.0 8.0 0.00 0.00 0.00 74 1016.7
20260902162705 86 139 3.0 7.0 0.00 0.00 0.00 74 1016.7
20260902161704 86 72 7.0 12.0 0.00 0.00 0.00 74 1016.7
20260902160704 86 103 3.0 10.0 0.00 0.00 0.00 74 1016.7
20260902160204 86 62 6.0 10.0 0.00 0.00 0.00 74 1016.8
20260902155704 85 2 1.0 5.0 0.00 0.00 0.00 74 1016.9
20260902155204 85 11 5.0 12.0 0.00 0.00 0.00 74 1017.0
20260902154705 85 80 6.0 12.0 0.00 0.00 0.00 76 1016.9
20260902154204 85 26 5.0 12.0 0.00 0.00 0.00 73 1016.9
20260902153704 85 102 3.0 7.0 0.00 0.00 0.00 75 1016.8
20260902153205 85 106 6.0 9.0 0.00 0.00 0.00 76 1016.9
20260902152204 84 39 4.0 12.0 0.00 0.00 0.00 76 1017.0
20260902151704 84 49 7.0 12.0 0.00 0.00 0.00 77 1016.9
20260902151204 84 110 5.0 10.0 0.00 0.00 0.00 77 1016.9
20260902150205 83 101 5.0 10.0 0.00 0.00 0.00 78 1016.9
20260902145704 83 92 9.0 12.0 0.00 0.00 0.00 77 1016.9
20260902145204 83 81 9.0 12.0 0.00 0.00 0.00 78 1016.8
20260902144704 83 76 6.0 13.0 0.00 0.00 0.00 78 1016.7
20260902144204 82 109 5.0 12.0 0.00 0.00 0.00 79 1016.7
20260902143704 82 123 7.0 12.0 0.00 0.00 0.00 80 1016.6
20260902143205 82 71 9.0 13.0 0.00 0.00 0.00 80 1016.7
20260902142705 82 86 7.0 12.0 0.00 0.00 0.00 79 1016.7
20260902141204 81 55 6.0 9.0 0.00 0.00 0.00 80 1016.9
20260902140704 81 94 6.0 10.0 0.00 0.00 0.00 80 1016.9
20260902140204 81 87 8.0 12.0 0.00 0.00 0.00 82 1017.0
20260902135704 80 80 7.0 9.0 0.00 0.00 0.00 80 1017.0
20260902135204 80 46 3.0 9.0 0.00 0.00 0.00 82 1017.0
20260902134704 80 80 6.0 12.0 0.00 0.00 0.00 84 1017.0
20260902134204 79 58 8.0 12.0 0.00 0.00 0.00 84 1016.8
20260902133704 79 51 6.0 9.0 0.00 0.00 0.00 83 1016.7
20260902132704 79 74 7.0 12.0 0.00 0.00 0.00 83 1016.5
20260902131704 79 67 8.0 13.0 0.00 0.00 0.00 83 1016.4
20260902131204 79 87 9.0 15.0 0.00 0.00 0.00 85 1016.4
20260902130704 79 83 10.0 13.0 0.00 0.00 0.00 83 1016.4
20260902130204 79 85 10.0 14.0 0.00 0.00 0.00 84 1016.4
20260902125704 78 73 12.0 14.0 0.00 0.00 0.00 85 1016.4
20260902124704 78 57 9.0 12.0 0.00 0.00 0.00 85 1016.4
20260902124204 78 73 9.0 13.0 0.00 0.00 0.00 86 1016.3
20260902123704 77 73 5.0 12.0 0.00 0.00 0.00 85 1016.3
20260902123204 77 72 7.0 12.0 0.00 0.00 0.00 85 1016.3
20260902122704 77 73 8.0 13.0 0.00 0.00 0.00 85 1016.3
20260902122204 77 58 5.0 10.0 0.00 0.00 0.00 87 1016.3
20260902121704 76 68 5.0 8.0 0.00 0.00 0.00 87 1016.3
20260902121204 76 58 6.0 10.0 0.00 0.00 0.00 87 1016.3
20260902120705 76 72 6.0 12.0 0.00 0.00 0.00 87 1016.3
20260902120204 76 58 9.0 12.0 0.00 0.00 0.00 88 1016.3
20260902115203 76 65 8.0 12.0 0.00 0.00 0.00 88 1016.4
20260902114704 75 58 9.0 10.0 0.00 0.00 0.00 89 1016.3
20260902114204 75 72 8.0 12.0 0.00 0.00 0.00 91 1016.2
20260902113704 75 83 6.0 9.0 0.00 0.00 0.00 91 1016.2
20260902112704 74 68 7.0 10.0 0.00 0.00 0.00 92 1016.2
20260902112204 74 67 5.0 10.0 0.00 0.00 0.00 92 1016.1
20260902111704 74 71 6.0 9.0 0.00 0.00 0.00 92 1016.0
20260902111204 74 62 4.0 8.0 0.00 0.00 0.00 92 1016.0
20260902110704 74 50 2.0 5.0 0.00 0.00 0.00 92 1016.0
20260902105704 73 58 1.0 3.0 0.00 0.00 0.00 91 1015.8
20260902105204 73 28 2.0 3.0 0.00 0.00 0.00 91 1015.8
20260902104704 73 20 2.0 5.0 0.00 0.00 0.00 91 1015.6
20260902103704 73 67 2.0 3.0 0.00 0.00 0.00 90 1015.6
20260902103204 73 78 2.0 3.0 0.00 0.00 0.00 90 1015.4